FW4622 Weather Reports


time (UTC)temp
C
wind
direction
speed
KPH
gust
KPH
rain 1hr
cm
rain 24hr
cm
rain mn
cm
humidity
%
barometer
mb
20260506043704 18 273 4.8 11.3 0.00 0.00 0.00 74 1009.2
20260506043204 18 289 1.6 8.0 0.00 0.00 0.00 74 1009.0
20260506042704 18 277 1.6 4.8 0.00 0.00 0.00 74 1008.9
20260506042204 18 299 4.8 11.3 0.00 0.00 0.00 74 1009.0
20260506041704 18 324 4.8 11.3 0.00 0.00 0.00 74 1008.8
20260506041204 18 267 3.2 12.9 0.00 0.00 0.00 74 1008.7
20260506040705 18 290 3.2 11.3 0.00 0.00 0.00 74 1008.5
20260506035704 19 341 3.2 11.3 0.00 0.00 0.00 73 1008.4
20260506035204 20 275 3.2 12.9 0.00 0.00 0.00 73 1008.4
20260506034704 20 348 3.2 9.7 0.00 0.00 0.00 73 1008.4
20260506034204 20 314 3.2 8.0 0.00 0.00 0.00 73 1008.1
20260506033704 20 247 3.2 8.0 0.00 0.00 0.00 73 1008.2
20260506033204 20 251 3.2 11.3 0.00 0.00 0.00 73 1007.8
20260506032704 21 301 3.2 11.3 0.00 0.00 0.00 73 1008.0
20260506031704 21 259 3.2 11.3 0.00 0.00 0.00 73 1007.6
20260506031204 21 124 1.6 9.7 0.00 0.00 0.00 72 1007.5
20260506030704 21 286 4.8 12.9 0.00 0.00 0.00 72 1007.7
20260506030204 21 289 3.2 9.7 0.00 0.00 0.00 72 1007.7
20260506025704 21 272 4.8 12.9 0.00 0.00 0.00 71 1007.5
20260506025204 22 301 1.6 8.0 0.00 0.00 0.00 72 1007.4
20260506024205 22 244 3.2 11.3 0.00 0.00 0.00 71 1007.0
20260506023704 22 264 4.8 14.5 0.00 0.00 0.00 71 1006.7
20260506023204 23 308 4.8 19.3 0.00 0.00 0.00 70 1006.6
20260506022704 23 306 3.2 9.7 0.00 0.00 0.00 70 1006.6
20260506022204 23 41 1.6 8.0 0.00 0.00 0.00 69 1006.5
20260506021704 23 19 1.6 4.8 0.00 0.00 0.00 69 1006.3
20260506021204 23 311 0.0 4.8 0.00 0.00 0.00 69 1006.2
20260506020704 23 269 1.6 4.8 0.00 0.00 0.00 69 1006.1
20260506015704 23 279 1.6 3.2 0.00 0.00 0.00 68 1006.1
20260506014704 23 311 1.6 11.3 0.00 0.00 0.00 67 1006.1
20260506013704 23 269 1.6 4.8 0.00 0.00 0.00 68 1005.6
20260506013204 24 273 1.6 4.8 0.00 0.00 0.00 68 1005.4
20260506012704 24 261 0.0 4.8 0.00 0.00 0.00 67 1005.4
20260506012205 24 269 3.2 8.0 0.00 0.00 0.00 67 1005.7
20260506011704 24 286 3.2 4.8 0.00 0.00 0.00 67 1005.8
20260506011204 24 256 1.6 4.8 0.00 0.00 0.00 68 1005.4
20260506010703 25 270 1.6 9.7 0.00 0.00 0.00 67 1005.2
20260506010205 25 243 1.6 11.3 0.00 0.00 0.00 67 1005.2
20260506005704 25 292 3.2 12.9 0.00 0.00 0.00 66 1005.2
20260506005203 25 310 1.6 3.2 0.00 0.00 0.00 65 1004.9
20260506004704 26 284 0.0 1.6 0.00 0.00 0.00 65 1005.1
20260506004204 26 288 0.0 3.2 0.00 0.00 0.00 65 1004.9
20260506003704 26 83 3.2 9.7 0.00 0.00 0.00 64 1004.9
20260506002704 26 307 3.2 12.9 0.00 0.00 0.00 64 1004.8
20260506002204 27 266 1.6 9.7 0.00 0.00 0.00 63 1004.9
20260506001704 27 277 1.6 8.0 0.00 0.00 0.00 63 1004.9
20260506001204 27 277 3.2 9.7 0.00 0.00 0.00 62 1004.8
20260506000704 27 275 3.2 11.3 0.00 0.00 0.00 62 1004.8
20260506000205 27 15 3.2 12.9 0.00 0.00 0.00 61 1004.5
20260505235704 28 276 3.2 12.9 0.00 0.00 0.00 60 1004.2
20260505235204 28 291 4.8 8.0 0.00 0.00 0.00 60 1004.1
20260505234704 29 35 3.2 9.7 0.00 0.00 0.00 57 1004.1
20260505234203 30 203 1.6 4.8 0.00 0.00 0.00 55 1004.1
20260505233704 30 180 1.6 8.0 0.00 0.00 0.00 54 1004.0
20260505233204 30 338 1.6 9.7 0.00 0.00 0.00 53 1004.0
20260505232704 31 322 3.2 9.7 0.00 0.00 0.00 53 1004.0
20260505232204 31 329 1.6 8.0 0.00 0.00 0.00 53 1003.8
20260505231703 31 38 0.0 1.6 0.00 0.00 0.00 61 1003.5
20260505231204 32 277 0.0 1.6 0.00 0.00 0.00 57 1003.5
20260505230703 32 203 0.0 4.8 0.00 0.00 0.00 56 1003.3
20260505225705 32 249 0.0 4.8 0.00 0.00 0.00 56 1003.2
20260505225204 32 260 0.0 1.6 0.00 0.00 0.00 56 1003.3
20260505224703 32 79 0.0 9.7 0.00 0.00 0.00 57 1003.3
20260505224204 32 86 1.6 4.8 0.00 0.00 0.00 56 1003.3
20260505223703 32 105 0.0 4.8 0.00 0.00 0.00 55 1003.3
20260505223204 32 250 0.0 3.2 0.00 0.00 0.00 56 1003.1
20260505222703 32 271 0.0 3.2 0.00 0.00 0.00 55 1003.0
20260505222204 32 165 0.0 1.6 0.00 0.00 0.00 56 1002.9
20260505221704 32 268 0.0 3.2 0.00 0.00 0.00 56 1003.0
20260505221203 32 153 1.6 11.3 0.00 0.00 0.00 56 1003.1
20260505220703 32 86 3.2 14.5 0.00 0.00 0.00 57 1003.0
20260505215704 32 99 3.2 8.0 0.00 0.00 0.00 57 1003.1
20260505215203 32 149 1.6 8.0 0.00 0.00 0.00 56 1003.1
20260505214703 33 109 0.0 3.2 0.00 0.00 0.00 55 1003.1
20260505214203 33 285 3.2 9.7 0.00 0.00 0.00 55 1003.2
20260505213704 33 128 1.6 4.8 0.00 0.00 0.00 55 1003.4
20260505213204 33 216 3.2 11.3 0.00 0.00 0.00 54 1003.4
20260505212704 33 140 1.6 8.0 0.00 0.00 0.00 57 1003.3
20260505212203 33 301 1.6 4.8 0.00 0.00 0.00 55 1003.4
20260505211704 33 327 1.6 8.0 0.00 0.00 0.00 58 1003.5
20260505211204 33 162 3.2 8.0 0.00 0.00 0.00 56 1003.7
20260505210704 33 157 3.2 8.0 0.00 0.00 0.00 56 1003.5
20260505205203 32 305 1.6 4.8 0.00 0.00 0.00 57 1003.7
20260505204704 32 280 1.6 4.8 0.00 0.00 0.00 56 1003.8
20260505204204 32 122 1.6 4.8 0.00 0.00 0.00 58 1003.8
20260505203703 32 251 0.0 3.2 0.00 0.00 0.00 58 1004.0
20260505203204 32 162 1.6 8.0 0.00 0.00 0.00 59 1004.0
20260505202704 32 257 4.8 14.5 0.00 0.00 0.00 58 1004.0
20260505202203 32 272 3.2 9.7 0.00 0.00 0.00 59 1004.0
20260505201704 32 284 0.0 8.0 0.00 0.00 0.00 58 1004.0
20260505200204 32 149 3.2 11.3 0.00 0.00 0.00 58 1004.1
20260505195704 32 124 1.6 8.0 0.00 0.00 0.00 60 1004.1
20260505195205 32 122 3.2 9.7 0.00 0.00 0.00 60 1004.1
20260505194204 31 255 3.2 9.7 0.00 0.00 0.00 61 1004.2
20260505193704 31 149 3.2 8.0 0.00 0.00 0.00 61 1004.3
20260505193204 31 173 4.8 9.7 0.00 0.00 0.00 62 1004.2
20260505192705 31 308 3.2 8.0 0.00 0.00 0.00 61 1004.2
20260505191704 31 214 3.2 14.5 0.00 0.00 0.00 63 1004.2
20260505191204 31 137 3.2 8.0 0.00 0.00 0.00 64 1004.3
20260505190704 30 284 1.6 4.8 0.00 0.00 0.00 65 1004.4
20260505190204 30 103 1.6 9.7 0.00 0.00 0.00 65 1004.4
20260505185704 30 145 4.8 14.5 0.00 0.00 0.00 64 1004.3
20260505184705 30 125 4.8 12.9 0.00 0.00 0.00 64 1004.4
20260505184204 30 109 3.2 9.7 0.00 0.00 0.00 64 1004.4
20260505183704 30 282 1.6 4.8 0.00 0.00 0.00 65 1004.6
20260505183204 30 336 3.2 4.8 0.00 0.00 0.00 65 1004.5
20260505182704 29 251 4.8 14.5 0.00 0.00 0.00 65 1004.5
20260505182204 29 197 6.4 12.9 0.00 0.00 0.00 65 1004.5
20260505181204 30 290 1.6 4.8 0.00 0.00 0.00 65 1004.8
20260505180705 29 138 3.2 9.7 0.00 0.00 0.00 66 1004.7
20260505180204 29 113 4.8 9.7 0.00 0.00 0.00 65 1004.8
20260505175704 29 147 3.2 8.0 0.00 0.00 0.00 65 1004.7
20260505175204 29 240 3.2 9.7 0.00 0.00 0.00 65 1004.7
20260505174204 29 135 3.2 11.3 0.00 0.00 0.00 65 1004.9
20260505173704 28 165 3.2 9.7 0.00 0.00 0.00 66 1004.9
20260505173204 28 60 1.6 12.9 0.00 0.00 0.00 66 1004.9
20260505172704 28 106 3.2 9.7 0.00 0.00 0.00 66 1004.9
20260505172205 28 79 1.6 9.7 0.00 0.00 0.00 67 1005.0
20260505171705 28 153 1.6 8.0 0.00 0.00 0.00 67 1005.0
20260505171204 28 110 4.8 19.3 0.00 0.00 0.00 67 1005.0
20260505165704 28 127 1.6 9.7 0.00 0.00 0.00 67 1005.1
20260505164705 28 118 3.2 12.9 0.00 0.00 0.00 67 1004.8
20260505164204 28 65 3.2 12.9 0.00 0.00 0.00 67 1004.8
20260505163704 28 173 1.6 8.0 0.00 0.00 0.00 67 1004.8
20260505163204 28 241 3.2 16.1 0.00 0.00 0.00 66 1004.8
20260505162704 27 260 1.6 19.3 0.00 0.00 0.00 68 1004.7
20260505162205 27 138 3.2 20.9 0.00 0.00 0.00 68 1004.7
20260505161205 27 142 3.2 8.0 0.00 0.00 0.00 68 1004.7
20260505160204 27 143 1.6 14.5 0.00 0.00 0.00 69 1004.6
20260505153204 26 109 3.2 12.9 0.00 0.00 0.00 69 1004.6
20260505152705 26 141 6.4 19.3 0.00 0.00 0.00 69 1004.6
20260505151704 26 193 3.2 9.7 0.00 0.00 0.00 70 1004.6
20260505151204 26 217 3.2 9.7 0.00 0.00 0.00 70 1004.7
20260505150704 25 81 3.2 11.3 0.00 0.00 0.00 71 1004.7
20260505150204 25 165 3.2 8.0 0.00 0.00 0.00 71 1004.7
20260505140203 22 87 1.6 11.3 0.00 0.00 0.00 77 1004.4
20260505124704 22 146 1.6 11.3 0.00 0.00 0.00 79 1004.4
20260505123704 21 121 3.2 11.3 0.00 0.00 0.00 79 1004.3
20260505123204 21 127 1.6 4.8 0.00 0.00 0.00 79 1004.1
20260505122704 21 94 3.2 9.7 0.00 0.00 0.00 79 1004.0
20260505122204 21 117 3.2 19.3 0.00 0.00 0.00 79 1004.0
20260505121204 21 134 3.2 16.1 0.00 0.00 0.00 79 1004.0
20260505120704 21 114 4.8 11.3 0.00 0.00 0.00 79 1004.0
20260505120204 21 122 1.6 9.7 0.00 0.00 0.00 79 1003.9
20260505115704 21 127 3.2 8.0 0.00 0.00 0.00 79 1003.9
20260505115204 21 222 4.8 11.3 0.00 0.00 0.00 79 1003.9
20260505114704 21 101 3.2 11.3 0.00 0.00 0.00 79 1003.9
20260505113704 21 246 1.6 11.3 0.00 0.00 0.00 79 1003.9
20260505113204 21 154 1.6 8.0 0.00 0.00 0.00 79 1003.7
20260505112704 21 138 3.2 11.3 0.00 0.00 0.00 79 1003.6
20260505112204 21 176 3.2 4.8 0.00 0.00 0.00 79 1003.7
20260505111703 21 117 1.6 8.0 0.00 0.00 0.00 79 1003.7
20260505111203 21 152 4.8 9.7 0.00 0.00 0.00 79 1003.7
20260505110704 21 172 4.8 19.3 0.00 0.00 0.00 79 1003.6
20260505102204 21 127 4.8 11.3 0.00 0.00 0.00 79 1003.7
20260505101704 21 193 1.6 11.3 0.00 0.00 0.00 78 1003.7
20260505101204 21 136 3.2 9.7 0.00 0.00 0.00 78 1003.7
20260505100704 21 123 4.8 14.5 0.00 0.00 0.00 78 1003.8
20260505100204 21 137 4.8 9.7 0.00 0.00 0.00 78 1003.8
20260505095204 21 132 4.8 14.5 0.00 0.00 0.00 78 1003.9
20260505094703 21 134 3.2 14.5 0.00 0.00 0.00 78 1004.0
20260505094204 21 151 8.0 22.5 0.00 0.00 0.00 78 1003.9
20260505093704 21 153 4.8 9.7 0.00 0.00 0.00 78 1004.0
20260505093204 21 139 4.8 19.3 0.00 0.00 0.00 78 1004.0
20260505092704 21 138 3.2 12.9 0.00 0.00 0.00 78 1004.1
20260505092204 21 153 3.2 11.3 0.00 0.00 0.00 78 1004.1
20260505091704 21 180 3.2 14.5 0.00 0.00 0.00 79 1004.1
20260505091204 21 130 1.6 11.3 0.00 0.00 0.00 79 1004.2
20260505090704 21 131 3.2 8.0 0.00 0.00 0.00 79 1004.3
20260505090204 21 147 4.8 12.9 0.00 0.00 0.00 79 1004.2
20260505085704 21 153 4.8 12.9 0.00 0.00 0.00 79 1004.2
20260505085204 21 167 3.2 14.5 0.00 0.00 0.00 79 1004.2
20260505084703 21 146 3.2 9.7 0.00 0.00 0.00 79 1004.2
20260505083704 21 93 3.2 12.9 0.00 0.00 0.00 79 1004.2
20260505083204 21 133 3.2 16.1 0.00 0.00 0.00 79 1004.2
20260505082703 21 109 6.4 19.3 0.00 0.00 0.00 79 1004.2
20260505082203 21 124 3.2 11.3 0.00 0.00 0.00 79 1004.2
20260505081704 21 144 3.2 11.3 0.00 0.00 0.00 79 1004.3
20260505081204 21 122 4.8 11.3 0.00 0.00 0.00 79 1004.3
20260505080703 21 119 3.2 14.5 0.00 0.00 0.00 79 1004.3
20260505075205 21 118 3.2 8.0 0.00 0.00 0.00 78 1004.5
20260505074705 21 123 3.2 9.7 0.00 0.00 0.00 78 1004.6
20260505074205 21 184 3.2 19.3 0.00 0.00 0.00 78 1004.7
20260505073704 21 156 3.2 11.3 0.00 0.00 0.00 78 1004.8
20260505073205 21 143 3.2 8.0 0.00 0.00 0.00 78 1004.9
20260505072704 21 128 3.2 11.3 0.00 0.00 0.00 78 1004.9
20260505072205 21 183 3.2 9.7 0.00 0.00 0.00 78 1005.1
20260505071204 22 140 3.2 12.9 0.00 0.00 0.00 78 1005.2
20260505070704 22 125 3.2 14.5 0.00 0.00 0.00 78 1005.2
20260505070205 22 71 4.8 11.3 0.00 0.00 0.00 77 1005.3
20260505065705 22 111 3.2 14.5 0.00 0.00 0.00 77 1005.3
20260505065204 22 99 1.6 9.7 0.00 0.00 0.00 77 1005.3
20260505064705 22 149 4.8 8.0 0.00 0.00 0.00 77 1005.4
20260505064204 22 124 4.8 11.3 0.00 0.00 0.00 77 1005.4
20260505063704 22 153 3.2 14.5 0.00 0.00 0.00 77 1005.5
20260505062705 22 148 6.4 19.3 0.00 0.00 0.00 76 1005.5
20260505062205 22 156 4.8 19.3 0.00 0.00 0.00 76 1005.5
20260505061204 22 121 4.8 11.3 0.00 0.00 0.00 76 1005.5
20260505060704 22 135 4.8 9.7 0.00 0.00 0.00 76 1005.5
20260505060205 22 128 8.0 12.9 0.00 0.00 0.00 76 1005.5
20260505055705 22 109 4.8 9.7 0.00 0.00 0.00 76 1005.6
20260505055204 22 99 4.8 19.3 0.00 0.00 0.00 75 1005.6
20260505054704 22 145 3.2 9.7 0.00 0.00 0.00 75 1005.6
20260505054204 22 122 4.8 12.9 0.00 0.00 0.00 75 1005.7
20260505053704 22 103 1.6 11.3 0.00 0.00 0.00 75 1005.8
20260505053204 22 115 4.8 11.3 0.00 0.00 0.00 75 1005.8
20260505052704 22 129 4.8 11.3 0.00 0.00 0.00 75 1005.8
20260505051704 22 128 4.8 16.1 0.00 0.00 0.00 74 1005.9
20260505051205 22 102 3.2 8.0 0.00 0.00 0.00 74 1005.9
20260505050705 22 75 3.2 16.1 0.00 0.00 0.00 74 1006.0
20260505050204 23 102 4.8 14.5 0.00 0.00 0.00 74 1005.9